Terminal Aerodrome Forecast
Issued by NWS

Home | Current Version | Previous Version | Text Only | Print | Product List | Glossary On
Versions: 1 2 3 4 5 6 7 8 9 10 11 12 13 14 15
000
FTUS45 KMSO 012039 AAA
TAFSMN
TAF AMD
KSMN 012039Z 0121/0218 20006G18KT P6SM -SHRA VCTS BKN090CB
     FM012200 22014G22KT P6SM SCT060
     FM020100 21005KT P6SM SKC
      AMD LTD TO CLD VIS AND WIND=

USA.gov is the U.S. government's official web portal to all federal, state and local government web resources and services.